Cork, Ireland

11:32 AM GMT on February 08, 2016 (GMT +0000)
Cork

Weather History for EICK - May, 2014

Change the Weather History Date:

Monday, May 5, 2014

  Actual Average Record
Temperature  
Mean Temperature 50 °F -  
Max Temperature 57 °F 58 °F 62 °F (2007)
Min Temperature 44 °F 45 °F 39 °F (2003)
Degree Days  
Heating Degree Days 14    
Moisture  
Dew Point 48 °F    
Average Humidity 92    
Maximum Humidity 100    
Minimum Humidity 70    
Precipitation  
Precipitation 0.31 in 0.11 in - ()
Sea Level Pressure  
Sea Level Pressure 29.64 in    
Wind  
Wind Speed 15 mph ()    
Max Wind Speed 22 mph    
Max Gust Speed 32 mph    
Visibility 5.8 miles    
Events Fog , Rain    
Averages and records for this station are not official NWS values.
T = Trace of Precipitation, MM = Missing Value Source: Averaged Metar Reports

Daily Weather History Graph

Daily Weather History Graph

Search for Another Location

Airport or City:

Trip Planner

Search our weather history database for the weather conditions in past years. The results will help you decide how hot, cold, wet, or windy it might be!

Date:

Astronomy

May. 05, 2014 Rise Set
Actual Time 5:57 AM IST 9:04 PM IST
Civil Twilight 5:18 AM IST 9:44 PM IST
Nautical Twilight 4:26 AM IST 10:36 PM IST
Astronomical Twilight 3:18 AM IST 11:45 PM IST
Moon 11:06 AM IST (5/5) 1:40 AM IST (5/5)
Length of Visible Light 16h 26m
Length of Day
15h 07m
Waxing Crescent, 34% of the Moon is Illuminated
May 5
Waxing Crescent
May 7
First Quarter
May 14
Full
May 21
Last Quarter
May 28
New

Hourly Weather History & Observations

Time (IST) Temp. Windchill Dew Point Humidity Pressure Visibility Wind Dir Wind Speed Gust Speed Precip Events Conditions
12:00 AM 49 °F - 48 °F 97% 29.89 in 12 mi South 15.7 mph - -   Overcast
12:00 AM 50.0 °F - 48.2 °F 94% 29.86 in 6.2 mi South 15.0 mph - N/A   Mostly Cloudy
12:30 AM 50.0 °F - 48.2 °F 94% 29.86 in 6.2 mi South 16.1 mph - N/A   Mostly Cloudy
1:00 AM 50 °F - 49 °F 93% 29.86 in 12 mi South 17.9 mph - -   Overcast
1:00 AM 50.0 °F - 48.2 °F 94% 29.83 in 6.2 mi South 17.3 mph - N/A   Mostly Cloudy
1:30 AM 50.0 °F - 48.2 °F 94% 29.83 in 6.2 mi South 15.0 mph - N/A   Mostly Cloudy
2:00 AM 50 °F - 49 °F 94% 29.84 in 12 mi South 15.7 mph - -   Overcast
2:00 AM 50.0 °F - 48.2 °F 94% 29.83 in 6.2 mi South 16.1 mph - N/A   Mostly Cloudy
2:30 AM 50.0 °F - 48.2 °F 94% 29.80 in 6.2 mi South 15.0 mph - N/A   Mostly Cloudy
3:00 AM 50 °F - 49 °F 95% 29.81 in 12 mi South 15.7 mph - -   Overcast
3:00 AM 50.0 °F - 48.2 °F 94% 29.80 in 6.2 mi South 16.1 mph - N/A   Mostly Cloudy
3:30 AM 50.0 °F - 48.2 °F 94% 29.77 in 6.2 mi South 17.3 mph - N/A   Mostly Cloudy
4:00 AM 50 °F - 49 °F 93% 29.78 in 12 mi South 15.7 mph - -   Overcast
4:00 AM 50.0 °F - 48.2 °F 94% 29.77 in 6.2 mi South 16.1 mph - N/A   Mostly Cloudy
4:30 AM 50.0 °F - 48.2 °F 94% 29.74 in 6.2 mi South 16.1 mph - N/A   Mostly Cloudy
5:00 AM 50 °F - 48 °F 92% 29.75 in 11 mi South 15.7 mph - - Rain Light Rain
5:00 AM 50.0 °F - 48.2 °F 94% 29.74 in 6.2 mi South 15.0 mph - N/A Rain Light Rain
5:30 AM 50.0 °F - 48.2 °F 94% 29.74 in 6.2 mi South 16.1 mph - N/A Rain Light Rain
6:00 AM 49 °F - 48 °F 96% 29.73 in 12 mi South 15.7 mph - - Rain Light Rain
6:00 AM 50.0 °F - 48.2 °F 94% 29.71 in 6.2 mi South 16.1 mph - N/A Rain Light Rain
6:30 AM 50.0 °F - 48.2 °F 94% 29.71 in 6.2 mi South 15.0 mph - N/A   Mostly Cloudy
7:00 AM 49 °F - 48 °F 97% 29.73 in 12 mi South 13.4 mph - - Rain Light Rain
7:00 AM 50.0 °F - 48.2 °F 94% 29.71 in 6.2 mi South 13.8 mph - N/A   Mostly Cloudy
7:30 AM 50.0 °F - 48.2 °F 94% 29.71 in 6.2 mi South 16.1 mph - N/A   Mostly Cloudy
8:00 AM 49 °F - 48 °F 97% 29.70 in 6 mi SSE 17.9 mph - - Rain Light Rain
8:00 AM 50.0 °F - 48.2 °F 94% 29.68 in 5.6 mi SSE 17.3 mph - N/A Rain Light Rain
8:30 AM 50.0 °F - 48.2 °F 94% 29.65 in 4.3 mi SSE 17.3 mph - N/A Rain Light Rain
9:00 AM 50 °F - 49 °F 95% 29.67 in 7 mi SSE 20.1 mph - - Rain Light Rain
9:00 AM 50.0 °F - 48.2 °F 94% 29.65 in 6.2 mi SSE 20.7 mph - N/A Rain Light Rain
9:30 AM 50.0 °F - 50.0 °F 100% 29.62 in 6.2 mi SSE 18.4 mph - N/A   Mostly Cloudy
10:00 AM 50 °F - 49 °F 97% 29.64 in 7 mi SSE 20.1 mph - - Rain Light Rain
10:00 AM 50.0 °F - 50.0 °F 100% 29.62 in 6.2 mi SSE 20.7 mph - N/A   Overcast
10:30 AM 50.0 °F - 50.0 °F 100% 29.59 in 3.7 mi SSE 21.9 mph - N/A Rain Light Rain
11:00 AM 50 °F - 49 °F 97% 29.61 in 4 mi SSE 20.1 mph - - Rain Light Rain
11:00 AM 50.0 °F - 50.0 °F 100% 29.59 in 3.7 mi SSE 19.6 mph - N/A Rain Light Rain
11:30 AM 50.0 °F - 50.0 °F 100% 29.59 in 3.7 mi SSE 21.9 mph - N/A Rain Light Rain
12:00 PM 50 °F - 50 °F 98% 29.59 in 2 mi South 20.1 mph - - Rain Light Rain
12:00 PM 50.0 °F - 50.0 °F 100% 29.56 in 1.9 mi South 19.6 mph - N/A Rain Light Rain
12:30 PM 50.0 °F - 50.0 °F 100% 29.56 in 1.2 mi South 18.4 mph - N/A Rain Light Rain
1:00 PM 51 °F - 51 °F 98% 29.57 in 1 mi South 20.1 mph - - Rain Light Rain
1:00 PM 50.0 °F - 50.0 °F 100% 29.53 in 1.1 mi South 19.6 mph 32.2 mph N/A Rain Light Rain
1:30 PM 50.0 °F - 50.0 °F 100% 29.53 in 0.7 mi South 16.1 mph - N/A Rain Light Rain
2:00 PM 51 °F - 51 °F 100% 29.55 in 0 mi South 15.7 mph - - Rain Light Rain
2:00 PM 51.8 °F - 51.8 °F 100% 29.53 in 0.5 mi South 15.0 mph - N/A Fog , Rain Light Rain
2:30 PM 51.8 °F - 51.8 °F 100% 29.53 in 0.1 mi South 15.0 mph - N/A Fog Light Drizzle
3:00 PM 52 °F - 52 °F 100%  in 0 mi South 15.7 mph - - Rain Light Drizzle
3:00 PM 51.8 °F - 51.8 °F 100% 29.50 in 0.2 mi South 16.1 mph - N/A Fog Light Drizzle
3:30 PM 53.6 °F - 53.6 °F 100% 29.50 in 5.0 mi SSW 17.3 mph - N/A   Overcast
4:00 PM 53 °F - 53 °F 100% 29.52 in 9 mi SW 20.1 mph - - Fog Light Fog
4:00 PM 53.6 °F - 53.6 °F 100% 29.50 in 6.2 mi SW 19.6 mph - N/A   Overcast
4:30 PM 55.4 °F - 53.6 °F 94% 29.50 in 6.2 mi SW 17.3 mph - N/A   Mostly Cloudy
5:00 PM 56 °F - 50 °F 73% 29.52 in 31 mi SW 20.1 mph - -   Mostly Cloudy
5:00 PM 57.2 °F - 50.0 °F 77% 29.50 in 6.2 mi SW 19.6 mph - N/A   Mostly Cloudy
5:30 PM 53.6 °F - 48.2 °F 82% 29.50 in 6.2 mi WSW 17.3 mph - N/A   Mostly Cloudy
6:00 PM 54 °F - 49 °F 77% 29.54 in 28 mi WSW 13.4 mph - -   Partly Cloudy
6:00 PM 55.4 °F - 48.2 °F 77% 29.53 in 6.2 mi WSW 13.8 mph - N/A   Scattered Clouds
6:30 PM 53.6 °F - 46.4 °F 77% 29.53 in 6.2 mi WSW 15.0 mph - N/A   Mostly Cloudy
7:00 PM 53 °F - 46 °F 70% 29.55 in 28 mi WSW 13.4 mph - -   Partly Cloudy
7:00 PM 53.6 °F - 46.4 °F 77% 29.53 in 6.2 mi WSW 13.8 mph - N/A   Mostly Cloudy
7:30 PM 51.8 °F - 46.4 °F 82% 29.53 in 6.2 mi WSW 11.5 mph - N/A   Mostly Cloudy
8:00 PM 51 °F - 45 °F 73% 29.56 in 28 mi SW 13.4 mph - -   Mostly Cloudy
8:00 PM 50.0 °F - 44.6 °F 82% 29.53 in 6.2 mi SW 12.7 mph - N/A   Mostly Cloudy
8:30 PM 50.0 °F - 46.4 °F 87% 29.56 in 6.2 mi WSW 9.2 mph - N/A   Mostly Cloudy
9:00 PM 49 °F - 46 °F 86% 29.58 in 28 mi SW 11.2 mph - -   Scattered Clouds
9:00 PM 50.0 °F - 46.4 °F 87% 29.56 in 6.2 mi SW 11.5 mph - N/A   Mostly Cloudy
9:30 PM 48.2 °F - 44.6 °F 87% 29.56 in 6.2 mi WSW 10.4 mph - N/A   Mostly Cloudy
10:00 PM 48 °F - 45 °F 86% 29.60 in 28 mi SW 8.9 mph - -   Scattered Clouds
10:00 PM 48.2 °F - 44.6 °F 87% 29.56 in 6.2 mi SW 9.2 mph - N/A   Mostly Cloudy
10:30 PM 44.6 °F 40.2 °F 42.8 °F 93% 29.59 in 6.2 mi SW 8.1 mph - N/A   Mostly Cloudy
11:00 PM 46 °F - 44 °F 89% 29.62 in 28 mi SW 11.2 mph - -   Scattered Clouds
11:00 PM 46.4 °F 41.5 °F 44.6 °F 93% 29.59 in 6.2 mi SW 10.4 mph - N/A   Scattered Clouds
11:30 PM 44.6 °F 40.2 °F 42.8 °F 93% 29.59 in 6.2 mi WSW 8.1 mph - N/A   Partly Cloudy